Location: Unspecified
(52.0000°N, 4.4000°E)
Time: 15:58:13
(UTC+00:00)

ACS3 Solar Sail - Visible Passes

Search period start: 17 July 2025 00:00
Search period end: 27 July 2025 00:00
Orbit: 911 x 1023 km, 97.4° (Epoch: 17 July)

Date Brightness Start Highest point End Pass type
(mag) Time Alt. Az. Time Alt. Az. Time Alt. Az.
18 Jul 4.5 02:55:41 10° NE 02:58:19 13° E 03:00:59 10° ESE visible
22 Jul 4.7 02:43:11 10° ENE 02:44:33 11° ENE 02:45:57 10° E visible
23 Jul 4.4 03:03:40 10° NE 03:07:24 17° E 03:11:09 10° ESE visible
